Flag for Switzerland Weather past 2 weeks in Köniz, Bern, Switzerland

Now
66 °F

Partly sunny.


Feels Like: 66 °F
Forecast: 53 / 71 °F
Wind: 5 mph from East

Location: Bern / Belp

Current Time: Aug 29, 2014 at 10:52:33 AM

Latest Report: Aug 29, 2014 at 10:20 AM


Visibility: N/A

Pressure: 30.09 "Hg

Humidity: 83%

Dew point: 61 °F

Location of KönizLocation

Historic Weather in Köniz — Graph

°F

Köniz temperature yesterday

Maximum temperature yesterday: 77 °F (at 4:50 PM)
Minimum temperature yesterday: 55 °F (at 6:50 AM)
Average temperature yesterday: 65 °F

Past Weeks' High & Low Weather Summary

 TemperatureHumidityPressure
High77 °F (Aug 28, 4:50 PM)100% (Aug 15, 7:50 AM)30.21 "Hg (Aug 15, 7:50 AM)
Low45 °F (Aug 17, 5:20 AM)31% (Aug 18, 5:50 PM)29.80 "Hg (Aug 26, 5:50 AM)
Average59 °F79%30.03 "Hg
* Reported Aug 14 9:20 AM — Aug 29 9:50 AM, Köniz, Weather by CustomWeather, © 2014

Note: Actual official high and low records may vary slightly from our data, if they occured in-between our weather recording intervals... More about our weather records

Advertising

Köniz weather history for previous 24 hours

 ConditionsComfort  
Time TempWeatherWind HumidityBarometerVisibility
9:50 AM
Aug 29
64 °FPartly sunny.3 mph88%30.09 "HgN/A
9:20 AM63 °FPartly sunny.2 mph88%30.09 "HgN/A
8:50 AM61 °FPartly sunny.1 mph94%30.09 "HgN/A
8:20 AM61 °FPartly sunny.1 mph88%30.09 "HgN/A
7:50 AM59 °FLight rain. Partly sunny.2 mph94%30.09 "HgN/A
7:20 AM59 °FPassing clouds.No wind94%30.07 "HgN/A
6:50 AM59 °FPassing clouds.3 mph94%30.07 "HgN/A
6:20 AM59 °FPassing clouds.2 mph94%30.07 "HgN/A
5:50 AM59 °FPassing clouds.2 mph94%30.07 "HgN/A
5:20 AM57 °FMostly cloudy.3 mph100%30.07 "HgN/A
4:50 AM57 °FPassing clouds.1 mph100%30.07 "HgN/A
4:20 AM59 °FPartly cloudy.3 mph94%30.07 "HgN/A
3:50 AM57 °FOvercast.7 mph100%30.07 "HgN/A
3:20 AM57 °FClear.6 mph94%30.07 "Hg10 mi
2:50 AM57 °FClear.2 mph94%30.09 "HgN/A
2:20 AM57 °FCool.1 mph94%30.09 "HgN/A
1:50 AM57 °FPassing clouds.2 mph94%30.09 "HgN/A
1:20 AM57 °FPassing clouds.1 mph100%30.09 "HgN/A
12:50 AM57 °FPassing clouds.1 mph100%30.09 "HgN/A
12:20 AM59 °FCool.1 mph94%30.09 "HgN/A
11:50 PM
Aug 28
59 °FCool.1 mph94%30.09 "HgN/A
11:20 PM61 °FPassing clouds.2 mph94%30.09 "HgN/A
10:50 PM61 °FPassing clouds.2 mph94%30.09 "HgN/A
10:20 PM63 °FOvercast.3 mph88%30.09 "HgN/A
9:50 PM63 °FPassing clouds.3 mph88%30.09 "HgN/A
9:20 PM63 °FPassing clouds.5 mph88%30.07 "HgN/A
8:50 PM64 °FBroken clouds.2 mph88%30.07 "HgN/A
8:20 PM66 °FScattered clouds.3 mph83%30.07 "HgN/A
7:50 PM68 °FPassing clouds.1 mph78%30.07 "HgN/A
7:20 PM72 °FScattered clouds.2 mph61%30.07 "HgN/A
6:50 PM73 °FScattered clouds.5 mph57%30.07 "HgN/A
6:20 PM75 °FPassing clouds.7 mph50%30.07 "HgN/A
5:20 PM77 °FScattered clouds.6 mph51%30.04 "HgN/A
4:50 PM77 °FPassing clouds.6 mph47%30.04 "HgN/A
4:20 PM75 °FPassing clouds.6 mph50%30.07 "HgN/A
3:50 PM75 °FPassing clouds.8 mph50%30.07 "HgN/A
3:20 PM75 °FPassing clouds.3 mph50%30.07 "HgN/A
2:50 PM75 °FScattered clouds.7 mph50%30.07 "HgN/A
2:20 PM73 °FScattered clouds.7 mph53%30.07 "HgN/A
1:50 PM73 °FScattered clouds.6 mph53%30.07 "HgN/A
1:20 PM72 °FScattered clouds.7 mph61%30.07 "HgN/A
12:50 PM72 °FPassing clouds.5 mph65%30.07 "HgN/A
12:20 PM70 °FScattered clouds.6 mph64%30.07 "HgN/A
11:50 AM70 °FScattered clouds.7 mph64%30.07 "HgN/A
11:20 AM68 °FScattered clouds.2 mph69%30.09 "HgN/A
10:50 AM66 °FScattered clouds.1 mph73%30.09 "HgN/A
10:20 AM66 °FPassing clouds.2 mph73%30.09 "HgN/A
Weather by CustomWeather, © 2014

See weather overviewHow to use our weather pages